GW3598 Weather Reports


Display with metric or nautical units.
time (UTC)temp
F
wind
direction
speed
MPH
gust
MPH
rain 1hr
in
rain 24hr
in
rain mn
in
humidity
%
barometer
mb
20240530102306 45 133 0.0 0.0 0.00 0.00 0.00 70 1020.7
20240530101803 45 128 0.0 0.0 0.00 0.00 0.00 70 1021.0
20240530101301 45 132 0.0 0.0 0.00 0.00 0.00 69 1020.7
20240530100758 45 136 0.0 0.0 0.00 0.00 0.00 68 1021.0
20240530100256 45 153 0.0 0.0 0.00 0.00 0.00 68 1020.7
20240530095755 45 144 0.0 0.0 0.00 0.00 0.00 68 1021.0
20240530095253 46 128 0.0 0.0 0.00 0.00 0.00 69 1020.7
20240530094752 46 125 0.0 0.0 0.00 0.00 0.00 68 1021.0
20240530094250 46 118 0.0 0.0 0.00 0.00 0.00 67 1020.7
20240530093742 46 123 0.0 0.0 0.00 0.00 0.00 66 1020.7
20240530093241 46 140 0.0 0.0 0.00 0.00 0.00 67 1020.7
20240530092739 46 119 0.0 0.0 0.00 0.00 0.00 66 1020.7
20240530092238 46 126 0.0 0.0 0.00 0.00 0.00 66 1021.0
20240530091736 46 143 0.0 2.0 0.00 0.00 0.00 66 1020.7
20240530091235 46 128 0.0 0.0 0.00 0.00 0.00 67 1021.0
20240530090733 46 119 0.0 0.0 0.00 0.00 0.00 65 1020.7
20240530090232 46 125 0.0 0.0 0.00 0.00 0.00 66 1020.7
20240530085731 46 121 0.0 0.0 0.00 0.00 0.00 65 1021.0
20240530085231 46 128 0.0 0.0 0.00 0.00 0.00 65 1021.0
20240530084729 47 120 0.0 0.0 0.00 0.00 0.00 65 1021.0
20240530084227 47 122 0.0 0.0 0.00 0.00 0.00 64 1021.0
20240530083725 47 153 0.0 0.0 0.00 0.00 0.00 64 1020.7
20240530083223 47 131 0.0 0.0 0.00 0.00 0.00 64 1021.0
20240530082722 47 126 0.0 0.0 0.00 0.00 0.00 63 1021.3
20240530082221 47 119 0.0 0.0 0.00 0.00 0.00 63 1021.0
20240530081720 48 117 0.0 0.0 0.00 0.00 0.00 63 1021.3
20240530081219 48 141 0.0 0.0 0.00 0.00 0.00 63 1021.3
20240530080717 47 154 0.0 0.0 0.00 0.00 0.00 63 1021.7
20240530080216 47 123 0.0 0.0 0.00 0.00 0.00 63 1021.3
20240530075714 48 122 0.0 0.0 0.00 0.00 0.00 64 1021.0
20240530075213 48 154 0.0 0.0 0.00 0.00 0.00 64 1021.0
20240530074712 48 131 0.0 0.0 0.00 0.00 0.00 63 1021.3
20240530074212 48 127 0.0 0.0 0.00 0.00 0.00 63 1021.3
20240530073711 48 123 0.0 0.0 0.00 0.00 0.00 64 1021.0
20240530073210 48 131 0.0 0.0 0.00 0.00 0.00 63 1021.3
20240530072708 48 123 0.0 0.0 0.00 0.00 0.00 64 1021.3
20240530072208 48 131 0.0 0.0 0.00 0.00 0.00 63 1021.7
20240530071706 48 137 0.0 0.0 0.00 0.00 0.00 62 1021.7
20240530071206 48 132 0.0 0.0 0.00 0.00 0.00 63 1021.3
20240530070705 48 136 0.0 0.0 0.00 0.00 0.00 63 1021.3
20240530070203 48 140 0.0 0.0 0.00 0.00 0.00 64 1021.0
20240530065702 48 139 0.0 0.0 0.00 0.00 0.00 63 1021.3
20240530065201 49 129 0.0 0.0 0.00 0.00 0.00 63 1021.3
20240530064701 49 116 0.0 0.0 0.00 0.00 0.00 62 1021.3
20240530064200 49 131 0.0 0.0 0.00 0.00 0.00 62 1021.3
20240530063658 49 122 0.0 0.0 0.00 0.00 0.00 62 1021.7
20240530063156 49 125 0.0 0.0 0.00 0.00 0.00 62 1021.7
20240530062656 49 125 0.0 0.0 0.00 0.00 0.00 62 1021.7
20240530062156 50 117 0.0 0.0 0.00 0.00 0.00 61 1021.7
20240530061655 50 118 0.0 0.0 0.00 0.00 0.00 62 1021.3
20240530061154 50 120 0.0 0.0 0.00 0.00 0.00 60 1021.3
20240530060651 51 121 0.0 0.0 0.00 0.00 0.00 60 1021.7
20240530060150 51 167 0.0 0.0 0.00 0.00 0.00 58 1021.7
20240530055648 51 122 0.0 0.0 0.00 0.00 0.00 59 1021.7
20240530055148 51 139 0.0 0.0 0.00 0.00 0.00 58 1022.0
20240530054647 51 124 0.0 0.0 0.00 0.00 0.00 58 1022.0
20240530054146 52 140 0.0 0.0 0.00 0.00 0.00 58 1022.0
20240530053645 52 166 0.0 0.0 0.00 0.00 0.00 57 1021.7
20240530053144 52 156 0.0 0.0 0.00 0.00 0.00 58 1022.0
20240530052644 52 131 0.0 0.0 0.00 0.00 0.00 58 1021.7
20240530052142 53 142 0.0 0.0 0.00 0.00 0.00 56 1022.0
20240530051641 53 174 0.0 0.0 0.00 0.00 0.00 57 1022.0
20240530051139 53 123 0.0 0.0 0.00 0.00 0.00 57 1022.0
20240530050638 53 157 0.0 0.0 0.00 0.00 0.00 56 1022.5
20240530050136 53 149 0.0 0.0 0.00 0.00 0.00 56 1022.0
20240530045635 54 142 0.0 0.0 0.00 0.01 0.01 55 1022.0
20240530045134 54 143 0.0 0.0 0.00 0.01 0.01 56 1022.0
20240530044633 54 161 0.0 2.0 0.00 0.01 0.01 55 1022.5
20240530044132 54 124 1.0 3.0 0.00 0.01 0.01 55 1022.0
20240530043630 55 142 0.0 0.0 0.00 0.01 0.01 56 1021.7
20240530043130 55 147 0.0 0.0 0.00 0.01 0.01 55 1021.7
20240530042630 55 131 0.0 0.0 0.00 0.01 0.01 58 1021.7
20240530042129 55 135 0.0 0.0 0.00 0.01 0.01 57 1021.7
20240530041628 56 126 0.0 0.0 0.00 0.01 0.01 57 1021.7
20240530041127 56 125 0.0 0.0 0.00 0.01 0.01 58 1021.3
20240530040627 56 134 0.0 0.0 0.00 0.01 0.01 60 1021.3
20240530040125 57 160 0.0 0.0 0.00 0.01 0.01 61 1021.7
20240530035623 57 156 1.0 3.0 0.00 0.01 0.01 61 1021.3
20240530035122 57 151 0.0 0.0 0.00 0.01 0.01 62 1021.7
20240530034621 58 130 0.0 0.0 0.00 0.01 0.01 61 1021.7
20240530034119 58 114 0.0 0.0 0.00 0.01 0.01 61 1021.3
20240530033619 58 134 0.0 0.0 0.00 0.01 0.01 63 1021.3
20240530033117 58 128 0.0 0.0 0.00 0.01 0.01 63 1021.3
20240530032616 58 131 0.0 0.0 0.00 0.01 0.01 63 1021.3
20240530032115 59 123 0.0 0.0 0.00 0.01 0.01 62 1021.3
20240530031615 59 131 0.0 0.0 0.00 0.01 0.01 61 1021.0
20240530031115 59 131 0.0 0.0 0.00 0.01 0.01 61 1021.0
20240530030614 59 134 0.0 0.0 0.00 0.01 0.01 60 1021.3
20240530030112 59 134 0.0 0.0 0.00 0.01 0.01 61 1021.0
20240530025611 59 121 0.0 0.0 0.00 0.01 0.01 60 1021.0
20240530025110 60 121 0.0 0.0 0.00 0.01 0.01 59 1021.0
20240530024608 60 130 0.0 0.0 0.00 0.01 0.01 59 1021.0
20240530024106 60 124 0.0 0.0 0.00 0.01 0.01 57 1021.0
20240530023604 61 121 0.0 0.0 0.00 0.01 0.01 56 1020.7
20240530023104 61 132 0.0 0.0 0.00 0.01 0.01 55 1021.0
20240530022603 62 130 0.0 0.0 0.00 0.01 0.01 54 1021.0
20240530022103 62 123 0.0 0.0 0.00 0.01 0.01 55 1020.7
20240530021602 62 132 0.0 0.0 0.00 0.01 0.01 53 1020.7
20240530021100 62 134 0.0 0.0 0.00 0.01 0.01 54 1020.7
20240530020558 63 117 0.0 0.0 0.00 0.01 0.01 53 1021.0
20240530020058 63 128 0.0 0.0 0.00 0.01 0.01 51 1020.7
20240530015557 64 142 0.0 0.0 0.00 0.01 0.01 50 1020.7
20240530015056 64 141 0.0 0.0 0.00 0.01 0.01 49 1021.0
20240530014555 64 134 0.0 0.0 0.00 0.01 0.01 49 1021.0
20240530014053 65 191 0.0 2.0 0.00 0.01 0.01 47 1021.0
20240530013547 65 147 0.0 0.0 0.00 0.01 0.01 47 1021.0
20240530013045 65 187 0.0 2.0 0.00 0.01 0.01 47 1021.0
20240530012544 66 131 0.0 0.0 0.00 0.01 0.01 46 1020.7
20240530012043 66 140 0.0 0.0 0.00 0.01 0.01 45 1021.3
20240530011520 66 151 0.0 0.0 0.00 0.01 0.01 43 1021.3
20240530011016 67 158 0.0 0.0 0.00 0.01 0.01 42 1021.0
20240530010515 67 164 0.0 0.0 0.00 0.01 0.01 43 1021.0
20240530010014 67 155 0.0 0.0 0.00 0.01 0.01 44 1021.3
20240530005512 67 156 0.0 0.0 0.00 0.01 0.01 42 1021.0
20240530005010 67 155 0.0 0.0 0.00 0.01 0.01 42 1021.0
20240530004509 67 171 1.0 3.0 0.00 0.01 0.01 41 1021.0
20240530004008 68 140 0.0 2.0 0.00 0.01 0.01 41 1021.0
20240530003507 68 168 6.0 10.0 0.00 0.01 0.01 39 1021.0
20240530003005 68 152 0.0 0.0 0.00 0.01 0.01 40 1021.0
20240530002505 68 160 2.0 3.0 0.00 0.01 0.01 42 1021.0
20240530002004 68 206 2.0 3.0 0.00 0.01 0.01 41 1021.0
20240530001503 68 125 0.0 0.0 0.00 0.01 0.01 42 1021.0
20240530001002 68 162 6.0 9.0 0.00 0.01 0.01 40 1021.0
20240530000500 68 158 0.0 0.0 0.00 0.01 0.01 40 1021.0
20240529235958 68 136 0.0 0.0 0.00 0.01 0.01 40 1020.7
20240529235458 68 159 1.0 2.0 0.00 0.01 0.01 40 1021.0
20240529234958 68 176 1.0 7.0 0.00 0.01 0.01 40 1021.3
20240529234457 69 233 6.0 7.0 0.00 0.01 0.01 40 1021.0
20240529233957 69 147 0.0 0.0 0.00 0.01 0.01 40 1021.3
20240529233456 69 186 3.0 7.0 0.00 0.01 0.01 40 1021.3
20240529232954 69 166 0.0 0.0 0.00 0.01 0.01 40 1021.0
20240529232452 69 114 0.0 0.0 0.00 0.01 0.01 41 1021.3
20240529231951 69 152 1.0 3.0 0.00 0.01 0.01 40 1021.3
20240529231449 69 150 0.0 0.0 0.00 0.01 0.01 42 1021.3
20240529230947 69 153 3.0 5.0 0.00 0.01 0.01 40 1021.3
20240529230446 69 146 0.0 0.0 0.00 0.01 0.01 40 1021.7
20240529225944 69 174 0.0 0.0 0.00 0.01 0.01 41 1021.7
20240529225443 69 115 0.0 0.0 0.00 0.01 0.01 41 1021.7
20240529224942 69 159 0.0 0.0 0.00 0.01 0.01 39 1021.3
20240529224442 69 185 2.0 5.0 0.00 0.01 0.01 38 1021.7
20240529223941 69 155 2.0 3.0 0.00 0.01 0.01 39 1021.7
20240529223441 69 142 2.0 5.0 0.00 0.01 0.01 39 1021.7
20240529222939 69 155 0.0 0.0 0.00 0.01 0.01 40 1021.7
20240529222438 69 149 0.0 2.0 0.00 0.01 0.01 41 1021.7
20240529221937 69 162 2.0 3.0 0.00 0.01 0.01 38 1021.7
20240529221436 69 96 0.0 0.0 0.00 0.01 0.01 39 1021.7
20240529220934 70 128 1.0 5.0 0.00 0.01 0.01 38 1022.0
20240529220432 69 148 0.0 0.0 0.00 0.01 0.01 39 1021.7
20240529215931 69 170 1.0 7.0 0.00 0.01 0.01 39 1021.7
20240529215429 69 274 3.0 5.0 0.00 0.01 0.01 38 1021.7
20240529214928 70 148 0.0 0.0 0.00 0.01 0.01 39 1022.0
20240529214426 69 112 0.0 0.0 0.00 0.01 0.01 39 1022.0
20240529213925 70 211 0.0 0.0 0.00 0.01 0.01 39 1022.0
20240529213425 70 160 2.0 5.0 0.00 0.01 0.01 39 1022.0
20240529212923 70 164 1.0 3.0 0.00 0.01 0.01 40 1022.0
20240529212423 70 144 7.0 9.0 0.00 0.01 0.01 38 1022.5
20240529211921 71 208 5.0 10.0 0.00 0.01 0.01 38 1022.5
20240529211421 72 140 0.0 2.0 0.00 0.01 0.01 38 1022.0
20240529210920 73 127 0.0 0.0 0.00 0.01 0.01 40 1022.0
20240529210416 71 109 0.0 0.0 0.00 0.01 0.01 38 1022.5
20240529205914 71 203 3.0 7.0 0.00 0.01 0.01 39 1022.5
20240529205412 71 131 0.0 0.0 0.00 0.01 0.01 41 1022.5
20240529204910 70 230 3.0 5.0 0.00 0.01 0.01 40 1022.8
20240529204410 70 163 9.0 12.0 0.00 0.01 0.01 37 1022.5
20240529203909 70 185 1.0 5.0 0.00 0.01 0.01 38 1022.5
20240529203407 70 173 2.0 9.0 0.00 0.01 0.01 40 1022.8
20240529202906 70 168 5.0 7.0 0.00 0.01 0.01 40 1022.5
20240529202404 70 183 3.0 5.0 0.00 0.01 0.01 40 1022.8
20240529201903 72 184 3.0 3.0 0.00 0.01 0.01 39 1022.8
20240529201402 72 136 0.0 0.0 0.00 0.01 0.01 41 1022.8
20240529200839 71 112 0.0 0.0 0.00 0.01 0.01 37 1022.8
20240529200338 71 140 0.0 0.0 0.00 0.01 0.01 40 1023.1
20240529195838 71 157 0.0 0.0 0.00 0.01 0.01 42 1023.1
20240529195336 70 127 0.0 0.0 0.00 0.01 0.01 40 1023.1
20240529194835 70 185 0.0 0.0 0.00 0.01 0.01 41 1023.1
20240529194334 71 149 0.0 0.0 0.00 0.01 0.01 40 1023.1
20240529193834 70 138 0.0 0.0 0.00 0.01 0.01 42 1023.1
20240529193332 70 113 0.0 0.0 0.00 0.01 0.01 41 1023.5
20240529192831 69 148 0.0 2.0 0.00 0.01 0.01 43 1023.1
20240529192331 68 175 0.0 0.0 0.00 0.01 0.01 45 1023.5
20240529191830 68 160 1.0 2.0 0.00 0.01 0.01 45 1023.5
20240529191328 69 161 3.0 5.0 0.00 0.01 0.01 44 1023.5
20240529190826 70 156 1.0 2.0 0.00 0.01 0.01 41 1023.5
20240529190325 68 115 0.0 0.0 0.00 0.01 0.01 44 1023.5
20240529185824 67 122 0.0 0.0 0.00 0.01 0.01 47 1023.8
20240529185322 70 173 1.0 5.0 0.00 0.01 0.01 41 1023.8
20240529184820 69 106 0.0 0.0 0.00 0.01 0.01 47 1023.8
20240529184318 68 128 0.0 0.0 0.00 0.01 0.01 47 1024.2
20240529183816 68 209 0.0 0.0 0.00 0.01 0.01 46 1023.8
20240529183315 68 67 0.0 0.0 0.00 0.01 0.01 48 1024.2
20240529182813 67 110 0.0 0.0 0.00 0.01 0.01 51 1024.5
20240529182311 68 92 0.0 0.0 0.00 0.01 0.01 44 1024.5
20240529181810 68 117 0.0 0.0 0.00 0.01 0.01 45 1024.5
20240529181309 69 65 0.0 0.0 0.00 0.01 0.01 43 1024.5
20240529180808 68 169 0.0 0.0 0.00 0.01 0.01 45 1024.5
20240529180305 68 111 0.0 0.0 0.00 0.01 0.01 45 1024.5
20240529175803 68 136 0.0 0.0 0.00 0.01 0.01 46 1024.5
20240529175301 67 200 0.0 0.0 0.00 0.01 0.01 46 1024.5
20240529174800 66 82 0.0 0.0 0.00 0.01 0.01 48 1024.5
20240529174259 66 102 0.0 0.0 0.00 0.01 0.01 47 1024.8
20240529173758 67 174 0.0 0.0 0.00 0.01 0.01 46 1024.8
20240529173257 67 148 0.0 0.0 0.00 0.01 0.01 56 1024.8
20240529172754 65 97 0.0 0.0 0.00 0.01 0.01 50 1024.8
20240529172251 66 194 0.0 2.0 0.00 0.01 0.01 49 1025.3
20240529171750 64 126 0.0 0.0 0.00 0.01 0.01 55 1025.3
20240529171250 65 147 0.0 0.0 0.00 0.01 0.01 50 1025.3
20240529170748 64 117 0.0 0.0 0.00 0.01 0.01 53 1025.6
20240529170246 62 132 0.0 0.0 0.00 0.01 0.01 56 1025.6
20240529165745 61 87 0.0 0.0 0.00 0.01 0.01 56 1025.6
20240529165244 62 197 0.0 0.0 0.00 0.01 0.01 56 1025.3
20240529164742 62 111 0.0 0.0 0.00 0.01 0.01 57 1025.3
20240529164240 62 129 0.0 0.0 0.00 0.01 0.01 59 1025.6
20240529163739 62 127 0.0 0.0 0.00 0.01 0.01 55 1025.6
20240529163237 62 89 0.0 0.0 0.00 0.01 0.01 58 1025.6
20240529162736 61 127 0.0 0.0 0.00 0.01 0.01 59 1025.6
20240529162236 61 114 0.0 0.0 0.00 0.01 0.01 55 1025.6
20240529161234 60 154 0.0 0.0 0.00 0.01 0.01 55 1025.3
20240529160732 60 191 0.0 0.0 0.00 0.01 0.01 57 1025.6
20240529160232 61 143 0.0 0.0 0.00 0.01 0.01 58 1025.9
20240529155731 61 158 0.0 0.0 0.00 0.01 0.01 62 1025.9
20240529155229 60 125 0.0 0.0 0.00 0.01 0.01 63 1025.9
20240529154728 60 151 4.0 7.0 0.00 0.01 0.01 63 1025.9
20240529154227 59 116 0.0 0.0 0.00 0.01 0.01 66 1025.6
20240529153726 59 114 0.0 0.0 0.00 0.01 0.01 66 1025.9
20240529153225 59 172 0.0 0.0 0.00 0.01 0.01 64 1025.9
20240529152724 59 213 0.0 2.0 0.00 0.01 0.01 67 1026.3
20240529152223 58 87 0.0 0.0 0.00 0.01 0.01 66 1025.9
20240529151721 58 157 0.0 0.0 0.00 0.01 0.01 66 1026.3
20240529151219 58 191 1.0 2.0 0.00 0.01 0.01 68 1025.9
20240529150717 58 195 0.0 2.0 0.00 0.01 0.01 68 1025.9
20240529150217 58 116 0.0 0.0 0.00 0.01 0.01 72 1025.9
20240529145716 57 105 0.0 0.0 0.00 0.01 0.01 71 1025.9
20240529145214 57 200 0.0 0.0 0.00 0.01 0.01 71 1026.3
20240529144712 57 173 2.0 3.0 0.00 0.01 0.01 71 1026.3
20240529144211 57 130 0.0 0.0 0.00 0.01 0.01 73 1025.9
20240529143711 57 108 0.0 0.0 0.00 0.01 0.01 75 1026.3
20240529143209 56 146 0.0 0.0 0.00 0.01 0.01 76 1026.3
20240529142707 56 108 0.0 0.0 0.00 0.01 0.01 75 1026.3
20240529142206 55 153 0.0 0.0 0.00 0.01 0.01 76 1026.3
20240529141705 55 179 2.0 3.0 0.00 0.01 0.01 77 1026.3
20240529141204 55 142 0.0 0.0 0.00 0.01 0.01 78 1026.3
20240529140702 55 179 3.0 5.0 0.00 0.01 0.01 78 1026.3
20240529140201 54 116 0.0 0.0 0.00 0.01 0.01 79 1026.3
20240529135701 55 217 0.0 0.0 0.00 0.01 0.01 79 1026.3
20240529135200 55 102 0.0 0.0 0.00 0.01 0.01 77 1026.3
20240529134658 54 124 0.0 0.0 0.00 0.01 0.01 80 1026.3
20240529134157 53 148 0.0 0.0 0.00 0.01 0.01 80 1026.3
20240529133656 53 126 0.0 0.0 0.00 0.01 0.01 81 1026.3
20240529133155 53 115 0.0 0.0 0.00 0.01 0.01 82 1026.3
20240529132655 52 107 0.0 0.0 0.00 0.01 0.01 83 1026.3
20240529132154 51 112 0.0 0.0 0.00 0.01 0.01 86 1026.3
20240529131654 51 134 0.0 0.0 0.00 0.01 0.01 87 1025.9
20240529131153 50 143 0.0 0.0 0.00 0.01 0.01 89 1026.3
20240529130653 50 104 0.0 0.0 0.00 0.01 0.01 90 1026.3
20240529130151 49 93 0.0 0.0 0.00 0.01 0.01 90 1026.3
20240529125650 49 110 0.0 0.0 0.00 0.01 0.01 90 1026.3
20240529125149 49 124 0.0 0.0 0.00 0.01 0.01 90 1025.9
20240529124648 48 130 0.0 0.0 0.00 0.01 0.01 90 1026.3
20240529124147 48 115 0.0 0.0 0.00 0.01 0.01 90 1025.9
20240529123645 48 102 0.0 0.0 0.00 0.01 0.01 90 1025.9
20240529123143 48 120 0.0 0.0 0.00 0.01 0.01 90 1025.9
20240529122643 47 110 0.0 0.0 0.00 0.01 0.01 90 1025.6
20240529122143 47 109 0.0 0.0 0.00 0.01 0.01 90 1025.6
20240529121642 46 101 0.0 0.0 0.00 0.01 0.01 90 1025.6
20240529121140 46 101 0.0 0.0 0.00 0.01 0.01 90 1025.6
20240529120638 45 101 0.0 0.0 0.00 0.01 0.01 90 1025.6
20240529120136 45 101 0.0 0.0 0.00 0.01 0.01 90 1025.9
20240529115634 44 101 0.0 0.0 0.00 0.01 0.01 90 1025.9
20240529115133 43 101 0.0 0.0 0.00 0.01 0.01 90 1025.6
20240529114631 43 101 0.0 0.0 0.00 0.01 0.01 90 1025.6
20240529114131 43 101 0.0 0.0 0.00 0.01 0.01 90 1025.6
20240529113630 42 101 0.0 0.0 0.00 0.01 0.01 90 1025.3
20240529113128 42 101 0.0 0.0 0.00 0.01 0.01 90 1025.6
20240529112627 42 101 0.0 0.0 0.00 0.01 0.01 90 1025.6
20240529112125 42 101 0.0 0.0 0.00 0.01 0.01 90 1025.6
20240529111624 41 101 0.0 0.0 0.00 0.01 0.01 90 1025.3
20240529111124 41 101 0.0 0.0 0.00 0.01 0.01 90 1025.3
20240529110623 41 101 0.0 0.0 0.00 0.01 0.01 90 1025.3
20240529110121 41 101 0.0 0.0 0.00 0.01 0.01 90 1025.3
20240529105621 41 101 0.0 0.0 0.00 0.01 0.01 90 1025.3
20240529105119 41 101 0.0 0.0 0.00 0.01 0.01 90 1024.8
20240529104618 41 101 0.0 0.0 0.00 0.01 0.01 90 1024.8
20240529104117 41 101 0.0 0.0 0.00 0.01 0.01 90 1025.3
20240529103615 41 101 0.0 0.0 0.00 0.01 0.01 90 1024.8
20240529103114 41 101 0.0 0.0 0.00 0.01 0.01 90 1025.3